This is the latest recevied weather packets stored in our database for station/object SR4DIG-13. If no packets are shown the sender has not sent any weather packets the latest 10 day(s).
| Time | Temp. | Humidity | Pressure | Rain* | Wind** | Luminosity | Snow |
|---|---|---|---|---|---|---|---|
| 1787911359 | 24.44° C | 42% | 1023.1 hPa | 0 mm | - | - | - |
| 1787911058 | 25° C | 43% | 1023 hPa | 0 mm | - | - | - |
| 1787910758 | 24.44° C | 44% | 1023 hPa | 0 mm | - | - | - |
| 1787910457 | 23.89° C | 45% | 1023.1 hPa | 0 mm | - | - | - |
| 1787910156 | 23.33° C | 45% | 1023.2 hPa | 0 mm | - | - | - |
| 1787909855 | 22.78° C | 47% | 1023.2 hPa | 0 mm | - | - | - |
| 1787909554 | 22.78° C | 48% | 1023.3 hPa | 0 mm | - | - | - |
| 1787909253 | 22.78° C | 48% | 1023.3 hPa | 0 mm | - | - | - |
| 1787908952 | 22.22° C | 48% | 1023.3 hPa | 0 mm | - | - | - |
| 1787908652 | 22.78° C | 47% | 1023.4 hPa | 0 mm | - | - | - |
| 1787908351 | 22.78° C | 47% | 1023.6 hPa | 0 mm | - | - | - |
| 1787908050 | 23.33° C | 47% | 1023.5 hPa | 0 mm | - | - | - |
| 1787907748 | 23.33° C | 48% | 1023.3 hPa | 0 mm | - | - | - |
| 1787907448 | 22.22° C | 47% | 1023.5 hPa | 0 mm | - | - | - |
| 1787907147 | 22.78° C | 47% | 1023.7 hPa | 0 mm | - | - | - |
| 1787906846 | 21.67° C | 49% | 1023.5 hPa | 0 mm | - | - | - |
| 1787906249 | 22.78° C | 48% | 1023.7 hPa | 0 mm | - | - | - |
| 1787905948 | 22.78° C | 49% | 1023.8 hPa | 0 mm | - | - | - |
| 1787905652 | 22.22° C | 49% | 1024 hPa | 0 mm | - | - | - |
| 1787905346 | 21.67° C | 50% | 1024.1 hPa | 0 mm | - | - | - |
| 1787905045 | 21.11° C | 51% | 1024.1 hPa | 0 mm | - | - | - |
| 1787904745 | 21.11° C | 50% | 1024.1 hPa | 0 mm | - | - | - |
| 1787904444 | 21.11° C | 51% | 1024.2 hPa | 0 mm | - | - | - |
| 1787904143 | 20.56° C | 52% | 1024.2 hPa | 0 mm | - | - | - |
| 1787903841 | 20.56° C | 52% | 1024.3 hPa | 0 mm | - | - | - |
* Rain latest hour (hover to see other rain measurements)
** Current wind speed in m/s (hover to see current wind gust speed)